Location: Newark
(35.6799°N, 139.7636°E)
Time: 15:51:31
(UTC+00:00)

Explorer 7 - Pass Details

Date: 12 December 2019
Orbit: 485 x 679 km, 50.3° (Epoch: 29 January)

Event Time Altitude Azimuth Distance (km) Brightness Sun altitude
Rises 10:22:20 0° 314° (NW) 3,034 11.1 -34.6°
Enters shadow 10:24:50 - 327° (NNW) 2,239 10.2 -35.1°
Reaches altitude 10° 10:25:17 10° 331° (NNW) 2,110 - -35.2°
Maximum altitude 10:28:54 20° 19° (NNE) 1,518 - -35.9°
Drops below altitude 10° 10:32:27 10° 67° (ENE) 2,059 - -36.6°
Sets 10:35:17 0° 84° (E) 2,937 - -37.2°
